Home   Weather   Braunau am Inn   Past weeks

Flag for Austria Past Weather in Braunau am Inn, Upper Austria, Austria — Yesterday and Last 2 Weeks

Now
34 °F

Chilly.


Feels Like: N/A
Forecast: 38 / 58 °F
Wind: N/A

Location: Salzburg-Flughafen

Current Time: Apr 30, 2017 at 5:45:58 am

Latest Report: Apr 30, 2017 at 5:00 am


Visibility: 19 mi

Pressure: 30.07 "Hg

Humidity: 86%

Dew Point: 30 °F

Location of Braunau am InnLocation

Past Weather in Braunau am Inn — Graph

°F

Braunau am Inn Temperature Yesterday

Maximum temperature yesterday: 54 °F (at 6:00 pm)
Minimum temperature yesterday: 35 °F (at 12:00 am)
Average temperature yesterday: 43 °F

High & Low Weather Summary for the Past Weeks

 TemperatureHumidityPressure
High64 °F (Apr 25, 2:00 pm)97% (Apr 28, 4:00 am)30.60 "Hg (Apr 28, 4:00 am)
Low29 °F (Apr 21, 6:00 am)34% (Apr 21, 6:00 pm)29.69 "Hg (Apr 25, 3:00 pm)
Average42 °F78%30.12 "Hg
* Reported Apr 15 4:00 am — Apr 30 4:00 am, Braunau am Inn, Weather by CustomWeather, © 2017

Note: Actual official high and low records may vary slightly from our data, if they occured in-between our weather recording intervals... More about our weather records

Advertising

Braunau am Inn Weather History for the Previous 24 Hours

Scroll right to see more
 ConditionsComfort  
Time TempWeatherWind HumidityBarometerVisibility
4:00 am
Sun, Apr 30
34 °FChilly.N/A86%30.08 "Hg25 mi
3:00 am35 °FChilly.N/A84%30.08 "Hg31 mi
2:00 am36 °FChilly.N/A84%30.09 "Hg31 mi
1:00 am37 °FPassing clouds.N/A83%30.10 "Hg31 mi
12:00 am37 °FChilly.N/A83%30.10 "Hg28 mi
11:00 pm
Sat, Apr 29
40 °FClear.N/A79%30.10 "Hg31 mi
10:00 pm41 °FClear.N/A73%30.09 "Hg31 mi
9:00 pm43 °FPassing clouds.N/A69%30.08 "Hg31 mi
8:00 pm50 °FPassing clouds.N/A49%30.05 "Hg28 mi
7:00 pm53 °FScattered clouds.N/A47%30.04 "Hg25 mi
6:00 pm54 °FPartly sunny.N/A40%30.04 "Hg19 mi
5:00 pm52 °FPartly sunny.N/A41%30.05 "Hg19 mi
4:00 pm52 °FPartly sunny.N/A46%30.06 "Hg22 mi
3:00 pm51 °FPartly sunny.N/A45%30.07 "Hg14 mi
2:00 pm49 °FOvercast.3 mph56%30.08 "Hg25 mi
1:00 pm51 °FPartly sunny.N/A44%30.08 "Hg22 mi
12:00 pm48 °FPartly sunny.N/A57%30.11 "Hg19 mi
11:00 am47 °FPartly sunny.3 mph72%30.12 "Hg16 mi
10:00 am43 °FPartly sunny.5 mph78%30.14 "Hg19 mi
9:00 am41 °FScattered clouds.5 mph83%30.14 "Hg14 mi
8:00 am38 °FPartly sunny.6 mph89%30.15 "Hg10 mi
7:00 am37 °FPartly sunny.3 mph91%30.16 "Hg13 mi
6:00 am37 °FLow clouds.5 mph92%30.14 "Hg11 mi
5:00 am36 °FOvercast.5 mph93%30.14 "Hg17 mi
Weather by CustomWeather, © 2017

See weather overviewHow to use our weather pages